Location: Lafig�re
(44.4503°N, 4.0357°E)
Time: 17:32:22
(UTC+00:00)

S-56A Canister/Altair - Pass Details

Date: 26 January 2021
Orbit: 631 x 2501 km, 38.9° (Epoch: 04 March)

Event Time Altitude Azimuth Distance (km) Brightness Sun altitude
Rises 23:54:46 0° 203° (SSW) 3,499 - -64.3°
Reaches altitude 10° 23:59:17 10° 172° (S) 2,259 - -64.3°
Maximum altitude 00:01:03 12° 152° (SSE) 2,051 - -64.2°
Drops below altitude 10° 00:02:43 10° 130° (SE) 2,098 - -64.2°
Sets 00:06:27 0° 97° (E) 2,920 - -64.2°
